Location: Observatoire
(46.1952°N, 5.3391°E)
Time: 16:59:12
(UTC+01:00)

Injun/Solrad 3 - Pass Details

Date: 16 February 2026
Orbit: 872 x 984 km, 66.8° (Epoch: 7 March)

Event Time Altitude Azimuth Distance (km) Brightness Sun altitude
Rises 22:26:28 0° 315° (NW) 3,587 11.7 -44.0°
Reaches altitude 10° 22:29:34 10° 300° (WNW) 2,659 10.9 -44.4°
Enters shadow 22:31:41 17° 283° (WNW) 2,196 10.2 -44.7°
